DUKOVANY Weather Reports


time (UTC)temp
F
wind
direction
speed
knots
gust
knots
rain 1hr
in
rain 24hr
in
rain mn
in
humidity
%
barometer
mb
20260905212119 61 300 6.1 0.0 0.00 0.00 0.00 55
20260905202121 63 330 7.8 0.0 0.00 0.00 0.00 51
20260905192529 66 270 7.8 0.0 0.00 0.00 0.00 48
20260905182105 68 290 7.8 0.0 0.00 0.00 0.00 45
20260905172220 70 280 17.4 26.9 0.00 0.00 0.00 40
20260905162524 72 270 19.1 0.0 0.00 0.00 0.00 37
20260905151953 73 280 19.1 28.7 0.00 0.00 0.00 33
20260905141941 73 290 22.6 0.0 0.00 0.00 0.00 33
20260905132330 73 300 19.1 0.0 0.00 0.00 0.00 35
20260905122228 72 270 17.4 26.9 0.00 0.00 0.00 40
20260905112111 72 270 17.4 0.0 0.00 0.00 0.00 43
20260905102531 66 260 13.9 0.0 0.00 0.00 0.00 55
20260905092116 64 260 13.9 0.0 0.00 0.00 0.00 72
20260905082127 59 280 10.4 0.0 0.00 0.00 0.00 82
20260905072426 59 220 6.1 0.0 0.00 0.00 0.00 82
20260905062608 59 310 10.4 0.0 0.00 0.00 0.00 77
20260905062128 59 310 10.4 0.0 0.00 0.00 0.00 77
20260905052125 59 300 10.4 0.0 0.00 0.00 0.00 77
20260905042532 61 330 10.4 0.0 0.00 0.00 0.00 72
20260905032126 64 320 13.9 0.0 0.00 0.00 0.00 59
20260905022127 66 340 19.1 28.7 0.00 0.00 0.00 55
20260905012427 72 280 12.2 39.1 0.00 0.00 0.00 53
20260905002140 73 240 7.8 0.0 0.00 0.00 0.00 46
20260904232211 73 250 6.1 0.0 0.00 0.00 0.00 46
20260904222542 73 260 6.1 0.0 0.00 0.00 0.00 46